| time (UTC) | temp F | wind direction | speed MPH | gust MPH | rain 1hr in | rain 24hr in | rain mn in | humidity % | barometer mb |
| 20260508063603 | 49 | 87 | 1.0 | 3.0 | 0.00 | 0.00 | 0.00 | 100 | 1016.0 |
| 20260508063104 | 48 | 87 | 0.0 | 2.0 | 0.00 | 0.00 | 0.00 | 100 | 1015.9 |
| 20260508060104 | 46 | 86 | 0.0 | 0.0 | 0.00 | 0.00 | 0.00 | 100 | 1015.7 |
| 20260508053603 | 45 | 86 | 0.0 | 0.0 | 0.00 | 0.00 | 0.00 | 100 | 1015.7 |
| 20260508050104 | 45 | 87 | 0.0 | 0.0 | 0.00 | 0.00 | 0.00 | 100 | 1015.5 |
| 20260508043105 | 44 | 86 | 0.0 | 0.0 | 0.00 | 0.00 | 0.00 | 100 | 1015.4 |
| 20260508040103 | 44 | 87 | 0.0 | 0.0 | 0.00 | 0.00 | 0.00 | 100 | 1015.3 |
| 20260508033604 | 44 | 86 | 0.0 | 0.0 | 0.00 | 0.00 | 0.00 | 100 | 1015.3 |
| 20260508023104 | 43 | 86 | 0.0 | 0.0 | 0.00 | 0.00 | 0.00 | 100 | 1015.3 |
| 20260508020104 | 45 | 87 | 0.0 | 0.0 | 0.00 | 0.00 | 0.00 | 96 | 1015.2 |
| 20260508010603 | 47 | 86 | 0.0 | 0.0 | 0.00 | 0.00 | 0.00 | 99 | 1015.3 |
| 20260508003603 | 47 | 86 | 0.0 | 0.0 | 0.00 | 0.00 | 0.00 | 98 | 1015.3 |
| 20260507233103 | 48 | 86 | 1.0 | 2.0 | 0.00 | 0.00 | 0.00 | 96 | 1015.3 |
| 20260507230104 | 48 | 84 | 0.0 | 0.0 | 0.00 | 0.00 | 0.00 | 97 | 1015.4 |
| 20260507210604 | 49 | 84 | 0.0 | 0.0 | 0.00 | 0.00 | 0.00 | 93 | 1015.0 |
| 20260507210103 | 49 | 83 | 0.0 | 0.0 | 0.00 | 0.00 | 0.00 | 93 | 1014.8 |
| 20260507200604 | 50 | 83 | 1.0 | 2.0 | 0.00 | 0.00 | 0.00 | 92 | 1014.6 |
| 20260507200104 | 50 | 84 | 1.0 | 2.0 | 0.00 | 0.00 | 0.00 | 91 | 1014.6 |
| 20260507193603 | 51 | 84 | 0.0 | 0.0 | 0.00 | 0.00 | 0.00 | 90 | 1014.4 |
| 20260507193104 | 51 | 84 | 0.0 | 1.0 | 0.00 | 0.00 | 0.00 | 88 | 1014.4 |
| 20260507190105 | 51 | 237 | 0.0 | 5.0 | 0.00 | 0.00 | 0.00 | 85 | 1014.4 |
| 20260507183603 | 52 | 164 | 1.0 | 3.0 | 0.00 | 0.00 | 0.00 | 81 | 1014.3 |
| 20260507180603 | 53 | 142 | 1.0 | 3.0 | 0.00 | 0.00 | 0.00 | 78 | 1013.9 |
| 20260507173104 | 55 | 88 | 1.0 | 6.0 | 0.00 | 0.00 | 0.00 | 65 | 1013.9 |
| 20260507170603 | 56 | 78 | 2.0 | 5.0 | 0.00 | 0.00 | 0.00 | 67 | 1013.9 |
| 20260507163604 | 57 | 76 | 1.0 | 5.0 | 0.00 | 0.00 | 0.00 | 60 | 1013.9 |
| 20260507143603 | 60 | 25 | 3.0 | 7.0 | 0.00 | 0.00 | 0.00 | 50 | 1014.4 |
| 20260507140104 | 60 | 121 | 3.0 | 9.0 | 0.00 | 0.00 | 0.00 | 52 | 1014.8 |
| 20260507133103 | 59 | 23 | 1.0 | 8.0 | 0.00 | 0.00 | 0.00 | 53 | 1014.8 |
| 20260507130603 | 59 | 122 | 2.0 | 10.0 | 0.00 | 0.00 | 0.00 | 57 | 1014.8 |
| 20260507120104 | 58 | 185 | 3.0 | 12.0 | 0.00 | 0.00 | 0.00 | 61 | 1015.3 |
| 20260507113605 | 56 | 146 | 3.0 | 9.0 | 0.00 | 0.00 | 0.00 | 69 | 1015.3 |
| 20260507110603 | 54 | 123 | 4.0 | 9.0 | 0.00 | 0.00 | 0.00 | 69 | 1015.5 |
| 20260507103104 | 53 | 176 | 3.0 | 8.0 | 0.00 | 0.00 | 0.00 | 76 | 1015.7 |
| 20260507093104 | 51 | 178 | 2.0 | 8.0 | 0.00 | 0.00 | 0.00 | 82 | 1015.7 |
| 20260507090106 | 50 | 147 | 1.0 | 6.0 | 0.00 | 0.00 | 0.00 | 83 | 1015.7 |
| 20260507083603 | 49 | 299 | 1.0 | 6.0 | 0.00 | 0.00 | 0.00 | 87 | 1015.7 |
| 20260507083103 | 49 | 137 | 2.0 | 6.0 | 0.00 | 0.00 | 0.00 | 86 | 1015.7 |
| 20260507080604 | 47 | 137 | 3.0 | 7.0 | 0.00 | 0.00 | 0.00 | 89 | 1015.7 |
| 20260507080103 | 47 | 130 | 2.0 | 7.0 | 0.00 | 0.00 | 0.00 | 89 | 1015.7 |
| 20260507073604 | 46 | 114 | 3.0 | 6.0 | 0.00 | 0.00 | 0.00 | 91 | 1015.7 |